Location: Spruce Knob
(38.6995°N, 79.5330°W)
Time: 12:07:47
(UTC-05:00)

Envisat - Pass Details

Date: 06 December 2021
Orbit: 764 x 766 km, 98.2° (Epoch: 23 January)

Event Time Altitude Azimuth Distance (km) Brightness Sun altitude
Rises 04:20:28 0° 27° (NNE) 3,236 6.5 -34.7°
Reaches altitude 10° 04:23:13 10° 41° (NE) 2,305 5.8 -34.1°
Maximum altitude 04:27:17 24° 94° (E) 1,547 5.1 -33.4°
Drops below altitude 10° 04:31:19 10° 148° (SSE) 2,291 5.8 -32.6°
Sets 04:34:01 0° 162° (SSE) 3,212 6.5 -32.0°
